Weather History for Hot Springs, VA

Change the Weather History Date:

Sunday, March 17, 2013

  Actual Average Record
Temperature  
Mean Temperature 36 °F -  
Max Temperature 44 °F 42 °F 64 °F (2012)
Min Temperature 28 °F 26 °F 17 °F (2014)
Degree Days  
Heating Degree Days 29    
Moisture  
Dew Point 35 °F    
Average Humidity 95    
Maximum Humidity 100    
Minimum Humidity 76    
Precipitation  
Precipitation 0.12 in - - ()
Sea Level Pressure  
Sea Level Pressure 30.00 in    
Wind  
Wind Speed 11 mph (NW)    
Max Wind Speed 21 mph    
Max Gust Speed 28 mph    
Visibility 4 miles    
Events Fog , Rain , Snow    
Averages and records for this station are not official NWS values.
T = Trace of Precipitation, MM = Missing Value Source: NWS Daily Summary

Daily Weather History Graph

Daily Weather History Graph

Search for Another Location

Airport:

Trip Planner

Search our weather history database for the weather conditions in past years. The results will help you decide how hot, cold, wet, or windy it might be!

Date:

Astronomy

Mar. 17, 2013 Rise Set
Actual Time 7:27 AM EDT 7:28 PM EDT
Civil Twilight 7:00 AM EDT 7:54 PM EDT
Nautical Twilight 6:30 AM EDT 8:25 PM EDT
Astronomical Twilight 5:59 AM EDT 8:56 PM EDT
Moon 10:44 AM EDT (3/17) 12:29 AM EDT (3/17)
Length of Visible Light 12h 54m
Length of Day
12h 01m
Waxing Crescent, 31% of the Moon is Illuminated
Mar 17
Waxing Crescent
Mar 19
First Quarter
Mar 27
Full
Apr 3
Last Quarter
Apr 10
New

Hourly Weather History & Observations

Time (EDT) Temp. Windchill Dew Point Humidity Pressure Visibility Wind Dir Wind Speed Gust Speed Precip Events Conditions
12:15 AM 44.6 °F 38.1 °F 39.2 °F 81% 29.89 in 10.0 mi West 13.8 mph 23.0 mph N/A   Overcast
12:35 AM 44.6 °F 38.1 °F 37.4 °F 76% 29.89 in 10.0 mi WNW 13.8 mph 21.9 mph N/A   Mostly Cloudy
12:55 AM 44.6 °F 36.4 °F 37.4 °F 76% 29.89 in 10.0 mi West 20.7 mph 27.6 mph N/A   Scattered Clouds
1:15 AM 42.8 °F 35.4 °F 37.4 °F 81% 29.90 in 10.0 mi West 15.0 mph 24.2 mph N/A   Scattered Clouds
1:35 AM 42.8 °F 35.1 °F 37.4 °F 81% 29.90 in 10.0 mi West 16.1 mph 23.0 mph N/A   Scattered Clouds
1:55 AM 42.8 °F 34.5 °F 37.4 °F 81% 29.90 in 10.0 mi West 18.4 mph 26.5 mph N/A   Scattered Clouds
2:15 AM 42.8 °F 35.1 °F 37.4 °F 81% 29.90 in 10.0 mi West 16.1 mph 23.0 mph N/A   Scattered Clouds
2:35 AM 42.8 °F 34.3 °F 37.4 °F 81% 29.90 in 10.0 mi West 19.6 mph - N/A   Clear
2:55 AM 42.8 °F 35.1 °F 35.6 °F 76% 29.90 in 10.0 mi West 16.1 mph - N/A   Clear
2:57 AM 42.8 °F 35.1 °F 35.6 °F 76% 29.90 in 10.0 mi West 16.1 mph - N/A   Clear
3:35 AM 42.8 °F 35.4 °F 37.4 °F 81% 29.91 in 10.0 mi West 15.0 mph 21.9 mph N/A   Scattered Clouds
3:55 AM 41.0 °F 33.9 °F 37.4 °F 87% 29.90 in 10.0 mi West 12.7 mph - N/A   Clear
4:15 AM 39.2 °F 32.0 °F 37.4 °F 93% 29.91 in 10.0 mi West 11.5 mph - N/A   Clear
4:55 AM - - - N/A% - 10.0 mi West 10.4 mph - N/A   Unknown
5:15 AM 39.2 °F 32.0 °F 37.4 °F 93% 29.91 in 10.0 mi West 11.5 mph - N/A   Scattered Clouds
5:35 AM 39.2 °F 32.0 °F 37.4 °F 93% 29.92 in 10.0 mi West 11.5 mph - N/A   Mostly Cloudy
5:55 AM 39.2 °F 32.5 °F 37.4 °F 93% 29.92 in 10.0 mi West 10.4 mph - N/A   Overcast
6:35 AM 39.2 °F 32.0 °F 37.4 °F 93% 29.94 in 7.0 mi West 11.5 mph - N/A   Overcast
6:55 AM 39.2 °F 32.5 °F 37.4 °F 93% 29.95 in 7.0 mi WSW 10.4 mph - N/A   Overcast
7:15 AM 39.2 °F 32.5 °F 37.4 °F 93% 29.96 in 7.0 mi WSW 10.4 mph - N/A   Overcast
7:35 AM 39.2 °F 33.6 °F 37.4 °F 93% 29.97 in 5.0 mi West 8.1 mph - N/A   Overcast
7:55 AM 39.2 °F 33.6 °F 37.4 °F 93% 29.98 in 5.0 mi WSW 8.1 mph - N/A   Overcast
8:15 AM 39.2 °F 33.0 °F 37.4 °F 93% 29.99 in 5.0 mi WSW 9.2 mph - N/A   Overcast
8:35 AM 39.2 °F 32.5 °F 39.2 °F 100% 30.01 in 5.0 mi West 10.4 mph - N/A   Overcast
8:55 AM 39.2 °F 31.6 °F 39.2 °F 100% 30.02 in 5.0 mi West 12.7 mph - N/A   Overcast
9:15 AM 39.2 °F 31.2 °F 37.4 °F 93% 30.02 in 0.2 mi West 13.8 mph 17.3 mph N/A   Light Drizzle
9:35 AM 37.4 °F 30.3 °F 37.4 °F 100% 30.02 in 1.0 mi West 10.4 mph - N/A   Overcast
9:55 AM 37.4 °F 30.3 °F 37.4 °F 100% 30.03 in 1.8 mi West 10.4 mph - N/A   Overcast
10:15 AM 37.4 °F 33.8 °F 37.4 °F 100% 30.03 in 2.5 mi WNW 4.6 mph - N/A   Overcast
10:35 AM 37.4 °F 34.9 °F 37.4 °F 100% 30.04 in 5.0 mi West 3.5 mph - N/A Rain Rain
10:55 AM 37.4 °F 33.8 °F 37.4 °F 100% 30.04 in 3.0 mi NNW 4.6 mph - N/A Rain Light Rain
11:15 AM 37.4 °F 32.8 °F 37.4 °F 100% 30.05 in 5.0 mi NNW 5.8 mph - N/A   Overcast
11:35 AM 35.6 °F 31.7 °F 35.6 °F 100% 30.05 in 10.0 mi NW 4.6 mph - N/A   Overcast
11:55 AM 35.6 °F 30.7 °F 35.6 °F 100% 30.05 in 10.0 mi North 5.8 mph - N/A   Overcast
12:15 PM 35.6 °F - 33.8 °F 93% 30.05 in 10.0 mi Calm Calm - N/A   Overcast
12:35 PM 35.6 °F - 33.8 °F 93% 30.05 in 10.0 mi Calm Calm - N/A Rain Light Rain
12:55 PM 35.6 °F - 33.8 °F 93% 30.05 in 10.0 mi Calm Calm - N/A   Overcast
1:15 PM 35.6 °F - 35.6 °F 100% 30.04 in 1.5 mi Calm Calm - N/A   Overcast
1:35 PM 37.4 °F - 35.6 °F 93% 30.04 in 10.0 mi Calm Calm - N/A   Overcast
2:15 PM 35.6 °F - 35.6 °F 100% 30.03 in 0.2 mi Calm Calm - N/A Fog Fog
2:35 PM 35.6 °F - 35.6 °F 100% 30.03 in 0.2 mi Calm Calm - N/A Snow Light Snow
2:55 PM 35.6 °F - 35.6 °F 100% 30.03 in 0.2 mi Calm Calm - N/A Rain Light Rain
3:15 PM 35.6 °F 32.8 °F 35.6 °F 100% 30.03 in 0.2 mi ENE 3.5 mph - N/A Rain Light Rain
3:35 PM 35.6 °F 32.8 °F 35.6 °F 100% 30.02 in 0.2 mi East 3.5 mph - N/A   Drizzle
3:55 PM 33.8 °F 28.6 °F 33.8 °F 100% 30.02 in 0.2 mi East 5.8 mph - N/A Snow Light Snow
4:15 PM 33.8 °F 28.6 °F 33.8 °F 100% 30.03 in 0.2 mi ENE 5.8 mph - N/A Snow Light Snow
4:35 PM 33.8 °F 29.6 °F 33.8 °F 100% 30.03 in 0.2 mi ENE 4.6 mph - N/A Snow Light Snow
4:55 PM 33.8 °F 30.8 °F 33.8 °F 100% 30.03 in 0.2 mi ENE 3.5 mph - N/A Rain Light Rain
5:15 PM 33.8 °F 29.6 °F 33.8 °F 100% 30.04 in 0.2 mi ENE 4.6 mph - N/A Rain Light Rain
5:35 PM 33.8 °F 28.6 °F 33.8 °F 100% 30.03 in 0.2 mi East 5.8 mph - N/A Rain Light Rain
5:55 PM 32.0 °F 25.6 °F 32.0 °F 100% 30.04 in 0.2 mi East 6.9 mph - N/A Rain Light Rain
6:35 PM 32.0 °F 26.4 °F 32.0 °F 100% 30.06 in 0.2 mi East 5.8 mph - N/A   Overcast
6:55 PM 32.0 °F 25.6 °F 32.0 °F 100% 30.06 in 0.2 mi East 6.9 mph - N/A   Overcast
7:15 PM 32.0 °F 24.2 °F 32.0 °F 100% 30.05 in 0.2 mi East 9.2 mph - N/A   Overcast
7:35 PM 32.0 °F 26.4 °F 32.0 °F 100% 30.07 in 0.2 mi East 5.8 mph - 0.01 in   Overcast
7:55 PM 30.2 °F 21.9 °F 30.2 °F 100% 30.05 in 0.2 mi East 9.2 mph - 0.01 in   Overcast
8:15 PM 30.2 °F 22.6 °F 30.2 °F 100% 30.06 in 0.2 mi East 8.1 mph - 0.02 in   Overcast
8:35 PM 30.2 °F 21.3 °F 30.2 °F 100% 30.04 in 0.2 mi East 10.4 mph - 0.04 in   Overcast
8:55 PM 30.2 °F 22.6 °F 30.2 °F 100% 30.06 in 0.2 mi East 8.1 mph - 0.01 in   Overcast
9:15 PM 30.2 °F 21.9 °F 30.2 °F 100% 30.07 in 0.2 mi East 9.2 mph - 0.02 in   Overcast
9:35 PM 30.2 °F 21.9 °F 30.2 °F 100% 30.06 in 0.2 mi East 9.2 mph - 0.04 in   Overcast
9:55 PM 28.4 °F 19.1 °F 28.4 °F 100% 30.07 in 0.2 mi East 10.4 mph - 0.01 in   Overcast
10:15 PM 28.4 °F 20.4 °F 28.4 °F 100% 30.07 in 0.2 mi East 8.1 mph - 0.01 in   Overcast
10:35 PM 28.4 °F 19.7 °F 28.4 °F 100% 30.08 in 0.2 mi East 9.2 mph - 0.01 in   Overcast
10:55 PM 28.4 °F 19.1 °F 28.4 °F 100% 30.08 in 0.2 mi East 10.4 mph - 0.01 in   Overcast
11:15 PM 28.4 °F 19.1 °F 28.4 °F 100% 30.08 in 0.2 mi East 10.4 mph - 0.01 in   Overcast
11:35 PM 28.4 °F 19.1 °F 28.4 °F 100% 30.07 in 0.2 mi East 10.4 mph - 0.02 in   Overcast
11:55 PM - - - N/A% 30.09 in 0.2 mi East 9.2 mph 16.1 mph N/A   Overcast